This is the latest recevied weather packets stored in our database for station/object KE0YJJ-14. If no packets are shown the sender has not sent any weather packets the latest 10 day(s).
| Time | Temp. | Humidity | Pressure | Rain* | Wind** | Luminosity | Snow |
|---|---|---|---|---|---|---|---|
| 1777616745 | 4.44° C | 71% | - | 0 mm | - | - | - |
| 1777616440 | 4.44° C | 72% | - | 0 mm | - | - | - |
| 1777616137 | 4.44° C | 73% | - | 0 mm | - | - | - |
| 1777615834 | 3.89° C | 73% | - | 0 mm | - | - | - |
| 1777615531 | 3.89° C | 74% | - | 0 mm | - | - | - |
| 1777615227 | 3.89° C | 74% | - | 0 mm | - | - | - |
| 1777614921 | 4.44° C | 76% | - | 0 mm | - | - | - |
| 1777614618 | 4.44° C | 69% | - | 0 mm | - | - | - |
| 1777614314 | 5° C | 68% | - | 0 mm | - | - | - |
| 1777614009 | 4.44° C | 66% | - | 0 mm | - | - | - |
| 1777613705 | 3.89° C | 67% | - | 0 mm | - | - | - |
| 1777613402 | 3.89° C | 69% | - | 0 mm | - | - | - |
| 1777613098 | 4.44° C | 70% | - | 0 mm | - | - | - |
| 1777612795 | 4.44° C | 66% | - | 0 mm | - | - | - |
| 1777612491 | 3.89° C | 67% | - | 0 mm | - | - | - |
| 1777612187 | 3.33° C | 70% | - | 0 mm | - | - | - |
| 1777611882 | 3.33° C | 72% | - | 0 mm | - | - | - |
| 1777611578 | 3.89° C | 70% | - | 0 mm | - | - | - |
| 1777611274 | 3.89° C | 68% | - | 0 mm | - | - | - |
| 1777610972 | 3.89° C | 67% | - | 0 mm | - | - | - |
| 1777610667 | 3.89° C | 67% | - | 0 mm | - | - | - |
| 1777610366 | 4.44° C | 67% | - | 0 mm | - | - | - |
| 1777610063 | 4.44° C | 66% | - | 0 mm | - | - | - |
| 1777609760 | 4.44° C | 65% | - | 0 mm | - | - | - |
| 1777609456 | 3.89° C | 65% | - | 0 mm | - | - | - |
* Rain latest hour (hover to see other rain measurements)
** Current wind speed in m/s (hover to see current wind gust speed)